AirNav   Pilot Hours Calculator
 
 1591 users online  

9MO8 Owensville Ambulance District Heliport
Owensville, Missouri, USA

GOING TO OWENSVILLE?


FAA INFORMATION EFFECTIVE 25 MARCH 2021

Location

FAA Identifier: 9MO8
Lat/Long: 38-21-13.9500N 091-29-57.2400W
38-21.232500N 091-29.954000W
38.3538750,-91.4992333
(estimated)
Elevation: 900 ft. / 274 m (estimated)
Variation: 03E (1985)
Time zone: UTC -5 (UTC -6 during Standard Time)
Zip code: 65066

Heliport Operations

Heliport use: Private use, MEDICAL USE.
Activation date: 06/1991
Control tower: no
ARTCC: KANSAS CITY CENTER
FSS: COLUMBIA FLIGHT SERVICE STATION
Attendance: UNATNDD
Wind indicator: yes
Segmented circle: no
Lights: FOR PERIMETER LGTS CALL 314-437-4353.

Heliport Communications

WX AWOS-3 at UUV (17 nm SE): 119.375 (573-860-2596)
WX ASOS at VIH (19 nm SW): 119.025 (573-299-4419)

Nearby radio navigation aids

VOR radial/distance  VOR name  Freq  Var
VIHr033/15.5VICHY VOR/DME117.7006E
FTZr226/32.1FORISTELL VORTAC110.8005E

Heliport Services

Runway Information

Helipad H1

Dimensions: 50 x 50 ft. / 15 x 15 m
Surface: concrete
Runway edge lights: PERI
Latitude: 38-21.232500N
Longitude: 091-29.954000W
Elevation: 900.0 ft.
Traffic pattern: leftleft

Heliport Ownership and Management from official FAA records

Ownership: Privately-owned
Owner: OWENSVILLE AREA AMBULANCE DIS
P O BOX 139
OWENSVILLE, MO 65066
Phone 314-437-4353
Manager: KAREN HUBENTHAL
P O BOX 139
OWENSVILLE, MO 65066
Phone 314-437-4353

Additional Remarks

OWNER DESIRES ARPT NOT BE CHARTED.
FOR CD CTC KANSAS CITY ARTCC AT 913-254-8508.

Instrument Procedures

There are no published instrument procedures at 9MO8.

Some nearby airports with instrument procedures:

KUUV - Sullivan Regional Airport (17 nm SE)
KUBX - Cuba Municipal Airport (17 nm S)
KVIH - Rolla NTL Airport (19 nm SW)
KFYG - Washington Regional Airport (28 nm NE)
KJEF - Jefferson City Memorial Airport (34 nm NW)
 
Loc | Ops | Rwys | IFR | FBO | Links
Com | Nav | Svcs | Stats | Notes
Area around 9MO8 (Owensville Ambulance District Heliport)
 
Road maps at: MapQuest Bing Google
 
Aerial photo
No photo
 
Sectional chart

 
Airport distance calculator
Flying to Owensville Ambulance District Heliport? Find the distance to fly.

From to 9MO8

Sunrise and sunset
Times for 21-Apr-2021
 Local
(UTC-5)
 Zulu
(UTC)
Morning civil twilight05:5510:55
Sunrise06:2311:23
Sunset19:4700:47
Evening civil twilight20:1401:14

Current date and time
Zulu (UTC)  21-Apr-2021 14:17:43
Local (UTC-5)  21-Apr-2021 09:17:43
 
METAR
KVIH 
18nm SW 
211353Z AUTO 25007KT 10SM OVC100 03/M02 A3025 RMK AO2 SLP253 T00281017
KFYG 
28nm NE 
211355Z AUTO 28004KT 10SM CLR 03/M02 A3026 RMK AO2
KJEF 
34nm NW 
211353Z 00000KT 10SM FEW090 BKN110 03/M03 A3026 RMK AO2 SLP242 T00331028
TAF
KCOU 
44nm NW 
211120Z 2112/2212 27005KT P6SM BKN100 FM211700 28011KT P6SM BKN050 FM212300 30009KT P6SM SCT100
KSUS 
44nm NE 
211120Z 2112/2212 26005KT P6SM FEW250 FM211900 28008KT P6SM VCSH BKN070 FM212300 29008KT P6SM SCT090
NOTAMs
Click for the latest NOTAMs
NOTAMs are issued by the DoD/FAA and will open in a separate window not controlled by AirNav.

 

 
 

Would you like to see your business listed on this page?

 If your business provides an interesting product or service to pilots, flight crews, aircraft, or users of the Owensville Ambulance District Heliport, you should consider listing it here.  To start the listing process, click on the button below
 
Add a business
 

Other Pages about Owensville Ambulance District Heliport

Update a link
 
Copyright © AirNav, LLC. All rights reserved. Privacy Policy  Contact